Regional Weather Roundup
Issued by NWS

Home | Current Version | Previous Version | Text Only | Print | Product List | Glossary On
Versions: 1 2 3 4 5 6 7 8 9 10 11 12 13 14 15 16 17 18 19 20 21 22 23 24 25 26 27 28 29 30 31 32 33 34 35 36 37 38 39 40 41 42 43 44 45 46 47 48 49 50
000
ASUS46 KSEW 261810
RWRWA

WASHINGTON REGIONAL WEATHER ROUNDUP
NATIONAL WEATHER SERVICE SEATTLE WA
1000 AM PST WED NOV 26 2014

NOTE:"FAIR" INDICATES FEW OR NO CLOUDS BELOW 12,000 FEET WITH NO
SIGNIFICANT WEATHER AND/OR OBSTRUCTIONS TO VISIBILITY.

WAZ505-507>509-261900-
SEATTLE, TACOMA, EVERETT, AND VICINITY

CITY           SKY/WX    TMP DP  RH WIND       PRES   REMARKS
EVERETT        CLOUDY    56  51  84 S18       30.09F
6HR MIN TEMP:  55; 6HR MAX TEMP:  56;

BOEING FIELD   CLOUDY    61  52  72 S9G21     30.12S
6HR MIN TEMP:  58; 6HR MAX TEMP:  61;

RENTON         CLOUDY    59  52  77 S9        30.12F
6HR MIN TEMP:  57; 6HR MAX TEMP:  59;

SEATAC AIRPORT CLOUDY    57  52  83 S12       30.13S
6HR MIN TEMP:  54; 6HR MAX TEMP:  57;

JBLM-MCCHORD   CLOUDY    54  54 100 S2        30.13F
6HR MIN TEMP:  50; 6HR MAX TEMP:  55; 6HR PCP:  0.02;

PUYALLUP       NOT AVBL
JBLM-FT LEWIS  DRIZZLE   54  54 100 SE5       30.13F
6HR MIN TEMP:  53; 6HR MAX TEMP:  55; 6HR PCP:  0.02;

TACOMA NARROWS CLOUDY    56  52  86 S7        30.13F
6HR MIN TEMP:  54; 6HR MAX TEMP:  56; 6HR PCP: TRACE;

$$

WAZ001-503-506-510-514-515-261900-
NORTH INTERIOR

CITY           SKY/WX    TMP DP  RH WIND       PRES   REMARKS
BELLINGHAM     CLOUDY    53  51  93 S10G17    30.06R
6HR MIN TEMP:  42; 6HR MAX TEMP:  54; 6HR PCP: TRACE;

FRIDAY HARBOR  CLOUDY    53  52  96 SE5       30.06S
6HR MIN TEMP:  48; 6HR MAX TEMP:  53;

EASTSOUND      PTSUNNY   54  54 100 S10       30.03S
PORT ANGELES   PTSUNNY   54  51  90 CALM      30.04F
6HR MIN TEMP:  43; 6HR MAX TEMP:  54;

NAS WHIDBEY    CLOUDY    54  50  86 S6        30.07S
6HR MIN TEMP:  53; 6HR MAX TEMP:  56;

BURLINGTON     CLOUDY    55  54  94 SE6       30.08S
$$

WAZ020-022-039-040-504-511-512-261900-
SOUTHWEST INTERIOR

CITY           SKY/WX    TMP DP  RH WIND       PRES   REMARKS
SHELTON        CLOUDY    56  54  93 SW7       30.10F
6HR MIN TEMP:  54; 6HR MAX TEMP:  56; 6HR PCP:  0.11;

OLYMPIA        CLOUDY    55  54  96 CALM      30.13F
6HR MIN TEMP:  54; 6HR MAX TEMP:  55; 6HR PCP:  0.01;

CHEHALIS       CLOUDY    59  55  88 S6        30.13F
KELSO          CLOUDY    55  52  88 SE8       30.19F
6HR MIN TEMP:  55; 6HR MAX TEMP:  55;

VANCOUVER      CLOUDY    58  50  75 SE5       30.17S
6HR MIN TEMP:  56; 6HR MAX TEMP:  58;

SCAPPOOSE, OR  CLOUDY    57  53  86 CALM      30.16F
6HR MIN TEMP:  52; 6HR MAX TEMP:  57;

PORTLAND, OR   CLOUDY    57  53  86 E6        30.17F
6HR MIN TEMP:  55; 6HR MAX TEMP:  58;

$$

WAZ021-516-517-261900-
WASHINGTON COAST

CITY           SKY/WX    TMP DP  RH WIND       PRES   REMARKS
FORKS          LGT RAIN  54  54 100 S10G20    30.06F VSB 1
6HR MIN TEMP:  54; 6HR MAX TEMP:  54; 6HR PCP:  0.25;

HOQUIAM        CLOUDY    54  53  97 S7        30.12S
6HR MIN TEMP:  53; 6HR MAX TEMP:  54; 6HR PCP:  0.01;

ASTORIA, OR    CLOUDY    55  54  96 CALM      30.13S
6HR MIN TEMP:  54; 6HR MAX TEMP:  56;

$$

WAZ019-023-024-040-518-519-261900-
CASCADE MOUNTAINS AND COLUMBIA GORGE

CITY           SKY/WX    TMP DP  RH WIND       PRES   REMARKS
STAMPEDE PASS  NOT AVBL
TROUTDALE, OR  CLOUDY    58  52  80 CALM      30.16F
6HR MIN TEMP:  53; 6HR MAX TEMP:  58;

THE DALLES, OR MOSUNNY   55  44  66 SE5       30.19F
6HR MIN TEMP:  48; 6HR MAX TEMP:  57;

$$

WAZ026-027-041>044-520-521-261900-
EAST SLOPES

CITY           SKY/WX    TMP DP  RH WIND       PRES   REMARKS
OMAK           CLOUDY    33  32  96 S7        30.18S FOG
6HR MIN TEMP:  32; 6HR MAX TEMP:  34; 6HR PCP: TRACE;

WENATCHEE      CLOUDY    38  35  89 CALM      30.18S FOG
6HR MIN TEMP:  37; 6HR MAX TEMP:  38;

ELLENSBURG     FOG       38  35  89 CALM      30.16S VSB<1/4
6HR MIN TEMP:  37; 6HR MAX TEMP:  38;

YAKIMA         FOG       41  39  93 NW3       30.18S VSB 3/4
6HR MIN TEMP:  39; 6HR MAX TEMP:  41;

$$

WAZ028-034-035-261900-
COLUMBIA BASIN

CITY           SKY/WX    TMP DP  RH WIND       PRES   REMARKS
EPHRATA        FOG       38  37  97 NE3       30.18S VSB 1/2
6HR MIN TEMP:  37; 6HR MAX TEMP:  38;

MOSES LAKE     FOG       38  37  97 CALM      30.19S VSB 1/2
6HR MIN TEMP:  36; 6HR MAX TEMP:  38;

PASCO          FOG       40  40 100 W3        30.21S VSB 3/4
6HR MIN TEMP:  39; 6HR MAX TEMP:  40;

HERMISTON, OR  PTSUNNY   63  44  50 SW5       30.18F
6HR MIN TEMP:  56; 6HR MAX TEMP:  63;

$$

WAZ036>038-261900-
NORTHEAST WASHINGTON

CITY           SKY/WX    TMP DP  RH WIND       PRES   REMARKS
SPOKANE GEIGER FOG       37  37 100 SE5       30.16R VSB 1/8
6HR MIN TEMP:  33; 6HR MAX TEMP:  37; 6HR PCP: TRACE;

SPOKANE FELTS  CLOUDY    37  35  92 NE3       30.19R FOG
6HR MIN TEMP:  36; 6HR MAX TEMP:  38;

FAIRCHILD AFB  FOG       36  36 100 E1        30.16S VSB 1/4
6HR MIN TEMP:  32; 6HR MAX TEMP:  36; 6HR PCP: TRACE;

COEURDALENE,ID CLOUDY    36  32  87 CALM      30.17R VSB 1
6HR MIN TEMP:  34; 6HR MAX TEMP:  36; 6HR PCP:  0.03;

DEER PARK      FOG       34  33  96 CALM      30.17F VSB 3/4
6HR MIN TEMP:  32; 6HR MAX TEMP:  34;

$$

WAZ029>033-261900-
SOUTHEAST WASHINGTON

CITY           SKY/WX    TMP DP  RH WIND       PRES   REMARKS
PULLMAN        CLOUDY    50  43  77 W12       30.21S
6HR MIN TEMP:  42; 6HR MAX TEMP:  50;

LEWISTON, ID   CLOUDY    43  41  93 N3        30.22R
6HR MIN TEMP:  40; 6HR MAX TEMP:  43;

WALLA WALLA    PTSUNNY   60  44  55 S13       30.20S
6HR MIN TEMP:  54; 6HR MAX TEMP:  60;

PENDLETON, OR  PTSUNNY   56  41  57 S8        30.21S
6HR MIN TEMP:  50; 6HR MAX TEMP:  56;

$$


USA.gov is the U.S. government's official web portal to all federal, state and local government web resources and services.